{"data":{"norad_id":68312,"epoch":"2026-09-19T07:41:55.931136Z","epoch_age_seconds":150281,"freshness":"FRESH","line1":"1 68312U 26057U   26262.32078624  .00021462  00000+0  66504-3 0  9998","line2":"2 68312  97.2844  27.7497 0001045  92.9985 267.1377 15.33453607 28330","mean_motion":15.33453607,"eccentricity":0.0001045,"inclination_deg":97.2844,"raan_deg":27.7497,"arg_perigee_deg":92.9985,"mean_anomaly_deg":267.1377,"bstar":0.00066504,"rev_number":2833,"period_min":93.905677578154,"perigee_km":464.80240431928,"apogee_km":466.23272812362,"semimajor_km":6843.6545662215,"source":"CELESTRAK","updated_at":"2026-09-20T09:00:43.879875Z"}}